Regional Weather Roundup
Issued by NWS

Home | Current Version | Previous Version | Text Only | Print | Product List | Glossary Off
Versions: 1 2 3 4 5 6 7 8 9 10 11 12 13 14 15 16 17 18 19 20 21 22 23 24 25 26 27 28 29 30 31 32 33 34 35 36 37 38 39 40 41 42 43 44 45 46 47 48 49 50

000
ASUS45 KPSR 251010
RWRAZ

ARIZONA REGIONAL HOURLY WEATHER ROUNDUP
NATIONAL WEATHER SERVICE PHOENIX AZ
300 AM MST SAT OCT 25 2014

NOTE: FAIR INDICATES FEW OR NO CLOUDS BELOW 12,000 FEET WITH NO
SIGNIFICANT WEATHER AND/OR OBSTRUCTIONS TO VISIBILITY.

AZZ001>003-036-251100-
NORTHWEST ARIZONA

CITY           SKY/WX    TMP DP  RH WIND       PRES   REMARKS
BULLHEAD CITY  CLEAR     70  39  32 CALM      29.98S
KINGMAN        CLEAR     62  40  44 S10       30.12S
$$

AZZ004>008-015-016-018-251100-
NORTH CENTRAL ARIZONA

CITY           SKY/WX    TMP DP  RH WIND       PRES   REMARKS
GRAND CANYON   PTCLDY    32  23  69 E3        30.33F SMOKE
PRESCOTT       CLEAR     53  38  56 S10       30.24F
FLAGSTAFF      CLEAR     36  30  79 CALM      30.36F
PAYSON         CLEAR     55  39  54 CALM      30.27F
PAGE           CLEAR     59  33  37 W6        30.18F
$$

AZZ009>014-017-251100-
NORTHEAST ARIZONA

CITY           SKY/WX    TMP DP  RH WIND       PRES   REMARKS
WINSLOW        CLEAR     48  38  68 SE7       30.26S
SAINT JOHNS    PTCLDY    45  39  79 CALM      30.30F
WINDOW ROCK    PTCLDY    35  24  64 CALM      30.37F
SHOW LOW       CLEAR     50  37  62 S9        30.35F
$$

AZZ023-251100-
GREATER PHOENIX AREA

CITY           SKY/WX    TMP DP  RH WIND       PRES   REMARKS
PHOENIX        CLEAR     76  49  38 E10       29.98F
BUCKEYE          N/A     63  45  51 N6        29.99F
DEER VALLEY    CLEAR     71  46  40 CALM      30.00F
SCOTTSDALE     CLEAR     68  50  52 CALM      30.02F
MESA-GATEWAY   CLEAR     66  48  52 E8        30.02F
$$

AZZ027-028-251100-
SOUTHWEST MARICOPA COUNTY AND PINAL COUNTY

CITY           SKY/WX    TMP DP  RH WIND       PRES   REMARKS
CASA GRANDE    CLEAR     66  46  48 CALM      30.02S
$$

AZZ503-504-507>509-251100-
SOUTHEAST ARIZONA

CITY           SKY/WX    TMP DP  RH WIND       PRES   REMARKS
TUCSON         CLEAR     67  48  50 SE8       30.11S
DAVIS-MONTHAN  CLEAR     65  47  51 SE8       30.09S
NOGALES        CLEAR     55  46  71 NE3       30.18S
SIERRA VISTA   CLEAR     60  45  57 SW8       30.22F
DOUGLAS        CLEAR     53  45  74 CALM      30.19F
SAFFORD        CLEAR     57  49  74 CALM      30.13S
$$

AZZ020-021-025-026-031-251100-
SOUTHWEST ARIZONA

CITY           SKY/WX    TMP DP  RH WIND       PRES   REMARKS
YUMA           MOCLDY    74  47  38 NE3       29.92F
$$

CAZ031-033-041-043-047-048-061-251100-
SOUTHERN CALIFORNIA

CITY           SKY/WX    TMP DP  RH WIND       PRES   REMARKS
DOWNTOWN L.A.  CLEAR     64  57  78 NE3       29.99F
L.A. AIRPORT   PTCLDY    63  62  95 W9        30.00F
SAN DIEGO      PTCLDY    68  61  78 NE3       30.00F
BURBANK        CLEAR     62  49  62 W6        30.00F
ONTARIO        CLEAR     64  41  42 CALM      30.02S
RIVERSIDE      CLEAR     64  40  41 E3        30.02F
PALM SPRINGS   CLEAR     76  46  34 CALM      29.96S
EL CENTRO NAS  CLEAR     72  42  34 W6        29.91F
IMPERIAL       CLEAR     71  47  42 CALM      29.90F
BLYTHE         CLEAR     69  45  41 N5        29.94S
NEEDLES        CLEAR     70  40  33 CALM      29.97S
$$

NVZ020-UTZ003-251100-
SOUTHERN NEVADA-UTAH

CITY           SKY/WX    TMP DP  RH WIND       PRES   REMARKS
LAS VEGAS      CLEAR     69  37  30 SW12      29.98F
SALT LAKE CITY CLEAR     58  29  33 SE12      30.07F
$$

NMZ009-TXZ055-251100-
NEW MEXICO-WEST TEXAS

CITY           SKY/WX    TMP DP  RH WIND       PRES   REMARKS
ALBUQUERQUE    CLEAR     56  37  49 NE3       30.29S
EL PASO        CLEAR     56  50  80 CALM      30.19F
$$


........................KEY........................
SKY/WX - SKY CONDITION/WEATHER
TMP    - TEMPERATURE IN FAHRENHEIT
DP     - DEW POINT IN FAHRENHEIT
RH     - RELATIVE HUMIDITY IN PERCENT
WIND   - DIRECTION AND SPEED IN MILES PER HOUR (MPH)
VRB    - VARIABLE WIND DIRECTION
PRES   - MEAN SEA LEVEL PRESSURE IN INCHES OF MERCURY
         F - FALLING PRESSURE   R - RISING PRESSURE
         S - STEADY PRESSURE
VSB    - VISIBILITY IN MILES
HX     - HEAT INDEX IN FAHRENHEIT
WCI    - WIND CHILL INDEX IN FAHRENHEIT
TC     - TEMPERATURE IN CELSIUS WHICH IS ALSO KNOWN AS
         TEMPERATURE IN CENTIGRADE
AFB    - AIR FORCE BASE
         LUKE AFB IS LUKE AIR FORCE BASE
         DAVIS-MONTHAN IS DAVIS-MONTHAN AIR FORCE BASE
NAS    - NAVAL AIR STATION
         EL CENTRO NAS IS EL CENTRO NAVAL AIR STATION
N/A    - NOT AVAILABLE



USA.gov is the U.S. government's official web portal to all federal, state and local government web resources and services.